Lid_Strength_Index
-1 -1 -1 -0 0 -0 -1 -1 -1 -1 -0 -0 -0 -0 -0 0 0 -0 -1 2 1 -1 -2 -2 -2 -2 -2 -2 -2 -1 -1 -0 -0 0 0 1 0 -0 -0 0 0 1 1
-1 -1 -1 -1 -0 -0 0 -0 -0 -0 -1 -1 -0 -0 -0 -0 0 1 1 0 1 1 -1 -2 -2 -2 -2 -2 -2 -2 -1 -1 -1 -0 0 1 1 -0 -0 -0 0 1 1
-1 -1 -1 -0 -1 -1 -0 -0 0 -0 0 -0 -0 -0 -1 -1 -1 -0 0 1 1 2 1 -0 -1 -2 -2 -2 -2 -2 -2 -2 -1 -1 -0 0 1 -0 -0 0 -0 0 1
-1 -1 -0 -0 -1 -1 -1 -0 1 1 1 1 0 -0 -0 -1 -0 -0 0 0 -0 -0 1 1 -1 -1 -2 -2 -2 -2 -2 -2 -2 -1 -1 -0 0 0 -0 -0 -0 0 1
-1 -1 -1 -1 -1 -1 -0 -0 0 1 1 1 1 0 -0 0 0 0 1 0 0 -0 -1 0 1 0 -1 -2 -2 -2 -2 -2 -2 -2 -2 -1 -1 0 -1 -1 -0 0 1
-1 0 -1 -1 -0 -0 -0 0 1 0 1 1 1 1 1 0 -0 -0 -0 -0 0 -0 -0 -0 -1 1 1 -1 -1 -2 -2 -2 -2 -2 -2 -2 -1 -0 -2 -1 -1 -0 0
0 -0 -0 -0 -0 0 1 0 0 1 1 0 2 3 2 1 0 0 -0 -0 -0 -0 -0 -0 -0 -0 -0 1 -0 -2 -2 -2 -2 -2 -2 -2 -2 -1 -2 -2 -2 -1 -0
-1 -0 -0 0 -0 0 1 1 1 2 2 1 3 3 5 3 2 1 0 0 0 -0 0 0 0 0 0 -0 0 -1 -2 -2 -2 -2 -2 -2 -2 -2 -2 -2 -2 -2 -1
0 -0 -0 -0 0 0 1 1 1 1 3 1 1 3 6 6 3 1 1 1 1 1 1 1 1 0 0 0 1 0 0 -1 -2 -2 -2 -2 -2 -2 -2 -2 -2 -2 -2
1 -1 -1 -0 -0 0 1 1 1 1 2 3 2 2 1 2 5 6 2 2 1 1 1 0 1 0 1 0 2 4 3 2 1 -0 -1 -1 -2 -2 -2 -2 -2 -2 -2
0 0 1 -0 0 1 0 1 1 1 1 2 2 2 3 3 2 4 6 4 2 1 1 1 1 1 1 2 1 3 4 3 3 3 2 1 -1 -1 -2 -2 -2 -2 -2
3 3 4 3 2 1 0 -0 0 1 1 1 1 2 3 4 4 4 5 4 4 2 1 1 1 1 1 1 3 5 4 4 3 3 3 3 2 0 -1 -1 -1 -1 -1
7 7 6 6 5 4 3 2 0 0 1 1 1 2 1 2 2 3 4 4 5 3 2 1 1 1 1 1 1 6 6 4 3 3 3 3 2 2 1 -1 -1 -1 -1
8 8 8 7 6 6 5 4 3 1 0 1 1 1 1 1 1 2 3 4 5 5 3 3 2 2 1 1 2 6 3 6 4 3 3 3 3 2 2 1 0 0 -0
10 10 9 8 8 7 6 6 4 4 3 2 1 1 1 1 1 1 1 2 4 7 6 3 3 2 2 1 2 1 2 5 5 5 4 4 3 3 3 2 1 1 0
11 11 10 9 8 8 7 7 6 5 5 4 3 5 4 3 3 1 1 2 2 4 6 3 2 1 2 2 2 2 2 6 6 5 5 5 4 4 3 3 2 2 1
12 12 11 10 10 9 8 7 7 6 6 6 6 6 6 4 3 3 1 2 2 2 5 3 2 1 1 3 3 3 3 3 3 7 6 6 5 5 4 4 3 3 3
13 13 13 12 12 11 10 9 8 8 8 8 8 7 7 6 6 5 3 3 2 2 3 4 3 2 2 1 2 2 3 4 4 6 6 6 6 6 5 5 5 4 4
14 14 13 13 13 12 11 10 10 10 9 8 8 8 8 8 8 7 7 6 6 5 3 3 3 2 2 2 2 5 5 5 7 8 7 7 7 7 6 6 6 6 6
15 14 14 14 13 13 11 12 11 11 11 10 10 9 8 8 8 8 8 8 8 8 7 7 6 4 3 9 10 9 9 11 9 11 9 9 8 8 7 6 7 8 8
15 14 14 14 13 12 12 12 11 11 11 10 10 9 8 8 9 8 8 8 8 9 9 9 9 7 5 9 10 9 9 9 11 11 12 11 12 10 9 8 8 9 7
15 14 13 13 12 12 11 11 11 11 10 10 10 9 8 9 8 7 7 7 7 8 8 9 9 10 8 6 9 8 8 11 9 10 11 10 10 10 11 9 8 8 8
14 14 13 12 13 12 11 11 11 11 11 10 10 10 10 9 9 8 7 7 6 6 6 6 9 9 9 7 9 8 10 10 8 9 10 9 11 10 11 10 8 7 7
14 14 13 13 14 13 12 12 12 12 12 12 11 11 10 10 9 9 9 9 9 8 7 7 7 7 6 6 5 6 7 10 12 11 12 10 12 11 12 12 9 8 8
14 14 14 14 14 14 13 12 12 13 13 13 12 12 11 11 10 9 10 10 10 9 7 7 6 6 6 6 6 7 9 11 11 12 12 11 13 13 13 12 11 8 7
15 14 15 15 15 15 14 13 13 13 14 15 14 13 12 13 12 11 12 11 11 10 9 9 9 8 7 7 7 7 7 9 9 12 12 11 14 14 14 14 13 13 10